Location: Sungai Bunut
(2.6333°N, 113.7333°E)
Time: 16:38:50
(UTC+00:00)

Altair - Pass Details

Date: 09 December 2023
Orbit: 1501 x 1682 km, 47.2° (Epoch: 24 February)

Event Time Altitude Azimuth Distance (km) Brightness Sun altitude
Rises 10:07:12 0° 287° (WNW) 4,629 10.9 1.3°
Reaches altitude 10° 10:11:19 10° 271° (W) 3,660 10.9 0.3°
Maximum altitude 10:17:28 20° 228° (SW) 2,993 10.3 -1.1°
Drops below altitude 10° 10:23:46 10° 185° (S) 3,732 9.9 -2.5°
Sets 10:28:05 0° 168° (SSE) 4,749 10.2 -3.5°
